WXM80 ListenWXM80 Stop

You find our weather info also at:

UK Metoffice

WeatherCloud

Weather Underground

Northeastern Weather Network

AWEKAS

Citizen Weather Observer Program (CWOP)

HAMweather, WeatherForYou, PWS Weather


Weather Underground History page Text

Daily Summary for October 12, 2017 Units:  Both    English   Metric
« Previous Day
Next Day »
Daily Weekly Monthly Yearly Custom
  High: Low: Average:
Temperature: 65.4 °F /  18.6 °C 55.2 °F /  12.9 °C 59.8 °F /  15.4 °C
Dew Point: 58.1 °F /  14.5 °C 48.1 °F /  8.9 °C 52.9 °F /  11.6 °C
Humidity: 94 % 62 % 78 %
Wind Speed: 12.0 mph /  19.3 km/h - 4.6 mph /  7.4 km/h
Wind Gust: 22.0 mph /  35.4 km/h - -
Wind:- - East
Pressure: 30.39 in /  1029 hPa 30.12 in /  1019.9 hPa -
Precipitation: 0.07 in /  1.78 mm    
Historical Graphs
 
 
Tabular Data for October 12, 2017
Time Temperature Dew Point Pressure Wind Wind Speed Wind Gust Humidity Rainfall Rate (Hourly)
00:01 61.7 °F /  16.5 °C 55.5 °F /  13.1 °C 30.13 in /  1020.2 hPa East 1.0 mph /  1.6 km/h 2.3 mph /  3.7 km/h 80 % 0.00 in /  0 mm
00:06 61.7 °F /  16.5 °C 55.8 °F /  13.2 °C 30.16 in /  1021.2 hPa ESE 1.7 mph /  2.7 km/h 2.3 mph /  3.7 km/h 81 % 0.00 in /  0 mm
00:11 61.7 °F /  16.5 °C 56.1 °F /  13.4 °C 30.13 in /  1020.2 hPa East 2.2 mph /  3.5 km/h 4.6 mph /  7.4 km/h 82 % 0.00 in /  0 mm
00:16 61.6 °F /  16.4 °C 56.0 °F /  13.3 °C 30.13 in /  1020.2 hPa East 2.8 mph /  4.5 km/h 4.6 mph /  7.4 km/h 82 % 0.00 in /  0 mm
00:21 61.7 °F /  16.5 °C 56.1 °F /  13.4 °C 30.13 in /  1020.2 hPa East 2.4 mph /  3.9 km/h 3.5 mph /  5.6 km/h 82 % 0.00 in /  0 mm
00:26 61.7 °F /  16.5 °C 56.1 °F /  13.4 °C 30.12 in /  1019.9 hPa SE 2.2 mph /  3.5 km/h 4.0 mph /  6.4 km/h 82 % 0.00 in /  0 mm
00:31 61.7 °F /  16.5 °C 56.5 °F /  13.6 °C 30.13 in /  1020.2 hPa ESE 1.1 mph /  1.8 km/h 3.5 mph /  5.6 km/h 83 % 0.00 in /  0 mm
00:37 61.7 °F /  16.5 °C 56.5 °F /  13.6 °C 30.13 in /  1020.2 hPa ESE 1.1 mph /  1.8 km/h 2.3 mph /  3.7 km/h 83 % 0.00 in /  0 mm
00:42 61.7 °F /  16.5 °C 56.8 °F /  13.8 °C 30.14 in /  1020.5 hPa East 1.6 mph /  2.6 km/h 2.3 mph /  3.7 km/h 84 % 0.00 in /  0 mm
00:46 61.7 °F /  16.5 °C 56.8 °F /  13.8 °C 30.14 in /  1020.5 hPa ESE 1.2 mph /  1.9 km/h 2.3 mph /  3.7 km/h 84 % 0.00 in /  0 mm
00:51 61.8 °F /  16.6 °C 56.9 °F /  13.8 °C 30.14 in /  1020.5 hPa East 2.1 mph /  3.4 km/h 3.5 mph /  5.6 km/h 84 % 0.00 in /  0 mm
00:56 61.8 °F /  16.6 °C 56.9 °F /  13.8 °C 30.14 in /  1020.5 hPa East 3.3 mph /  5.3 km/h 3.5 mph /  5.6 km/h 84 % 0.00 in /  0 mm
01:02 61.8 °F /  16.6 °C 56.9 °F /  13.8 °C 30.14 in /  1020.5 hPa East 2.3 mph /  3.7 km/h 4.6 mph /  7.4 km/h 84 % 0.00 in /  0 mm
01:07 61.9 °F /  16.6 °C 57.0 °F /  13.9 °C 30.19 in /  1022.2 hPa East 2.8 mph /  4.5 km/h 4.6 mph /  7.4 km/h 84 % 0.00 in /  0 mm
01:12 62.0 °F /  16.7 °C 56.8 °F /  13.8 °C 30.19 in /  1022.2 hPa East 2.8 mph /  4.5 km/h 6.9 mph /  11.1 km/h 83 % 0.00 in /  0 mm
01:17 62.0 °F /  16.7 °C 56.8 °F /  13.8 °C 30.18 in /  1021.9 hPa East 5.0 mph /  8 km/h 8.1 mph /  13 km/h 83 % 0.00 in /  0 mm
01:22 62.1 °F /  16.7 °C 56.9 °F /  13.8 °C 30.20 in /  1022.6 hPa East 4.0 mph /  6.4 km/h 6.9 mph /  11.1 km/h 83 % 0.00 in /  0 mm
01:27 62.2 °F /  16.8 °C 56.6 °F /  13.7 °C 30.20 in /  1022.6 hPa ENE 1.8 mph /  2.9 km/h 3.5 mph /  5.6 km/h 82 % 0.00 in /  0 mm
01:32 62.2 °F /  16.8 °C 56.6 °F /  13.7 °C 30.20 in /  1022.6 hPa SE 2.2 mph /  3.5 km/h 5.0 mph /  8 km/h 82 % 0.00 in /  0 mm
01:37 62.2 °F /  16.8 °C 57.0 °F /  13.9 °C 30.20 in /  1022.6 hPa East 2.3 mph /  3.7 km/h 3.5 mph /  5.6 km/h 83 % 0.00 in /  0 mm
01:42 62.2 °F /  16.8 °C 57.3 °F /  14.1 °C 30.16 in /  1021.2 hPa East 3.7 mph /  6 km/h 5.0 mph /  8 km/h 84 % 0.00 in /  0 mm
01:47 61.9 °F /  16.6 °C 57.0 °F /  13.9 °C 30.20 in /  1022.6 hPa East 3.1 mph /  5 km/h 5.0 mph /  8 km/h 84 % 0.00 in /  0 mm
01:52 61.7 °F /  16.5 °C 57.5 °F /  14.2 °C 30.21 in /  1022.9 hPa East 0.9 mph /  1.4 km/h 2.3 mph /  3.7 km/h 86 % 0.01 in /  0.25 mm
01:57 61.4 °F /  16.3 °C 57.5 °F /  14.2 °C 30.21 in /  1022.9 hPa East 1.3 mph /  2.1 km/h 3.5 mph /  5.6 km/h 87 % 0.01 in /  0.25 mm
02:02 61.2 °F /  16.2 °C 57.3 °F /  14.1 °C 30.21 in /  1022.9 hPa ENE 2.8 mph /  4.5 km/h 4.6 mph /  7.4 km/h 87 % 0.01 in /  0.25 mm
02:07 60.9 °F /  16.1 °C 57.3 °F /  14.1 °C 30.16 in /  1021.2 hPa East 1.1 mph /  1.8 km/h 3.5 mph /  5.6 km/h 88 % 0.01 in /  0.25 mm
02:12 60.7 °F /  15.9 °C 57.1 °F /  13.9 °C 30.17 in /  1021.6 hPa ESE 0.6 mph /  1 km/h 2.3 mph /  3.7 km/h 88 % 0.01 in /  0.25 mm
02:18 60.6 °F /  15.9 °C 57.3 °F /  14.1 °C 30.17 in /  1021.6 hPa East 1.8 mph /  2.9 km/h 3.5 mph /  5.6 km/h 89 % 0.01 in /  0.25 mm
02:23 60.5 °F /  15.8 °C 57.2 °F /  14 °C 30.16 in /  1021.2 hPa ESE 2.2 mph /  3.5 km/h 3.5 mph /  5.6 km/h 89 % 0.01 in /  0.25 mm
02:28 60.4 °F /  15.8 °C 57.5 °F /  14.2 °C 30.17 in /  1021.6 hPa ESE 0.5 mph /  0.8 km/h 2.3 mph /  3.7 km/h 90 % 0.02 in /  0.51 mm
02:33 60.3 °F /  15.7 °C 57.4 °F /  14.1 °C 30.19 in /  1022.2 hPa SSE 1.9 mph /  3.1 km/h 3.5 mph /  5.6 km/h 90 % 0.02 in /  0.51 mm
02:38 60.2 °F /  15.7 °C 57.3 °F /  14.1 °C 30.21 in /  1022.9 hPa East 2.4 mph /  3.9 km/h 4.6 mph /  7.4 km/h 90 % 0.02 in /  0.51 mm
02:43 60.1 °F /  15.6 °C 57.5 °F /  14.2 °C 30.17 in /  1021.6 hPa ESE 1.2 mph /  1.9 km/h 3.5 mph /  5.6 km/h 91 % 0.02 in /  0.51 mm
02:48 60.0 °F /  15.6 °C 57.4 °F /  14.1 °C 30.16 in /  1021.2 hPa East 2.4 mph /  3.9 km/h 3.5 mph /  5.6 km/h 91 % 0.02 in /  0.51 mm
02:53 60.0 °F /  15.6 °C 57.4 °F /  14.1 °C 30.20 in /  1022.6 hPa ESE 1.7 mph /  2.7 km/h 3.5 mph /  5.6 km/h 91 % 0.01 in /  0.25 mm
02:58 60.0 °F /  15.6 °C 57.7 °F /  14.3 °C 30.20 in /  1022.6 hPa East 3.7 mph /  6 km/h 5.0 mph /  8 km/h 92 % 0.02 in /  0.51 mm
03:03 60.0 °F /  15.6 °C 57.7 °F /  14.3 °C 30.16 in /  1021.2 hPa East 2.5 mph /  4 km/h 3.5 mph /  5.6 km/h 92 % 0.02 in /  0.51 mm
03:08 60.0 °F /  15.6 °C 57.7 °F /  14.3 °C 30.16 in /  1021.2 hPa East 2.1 mph /  3.4 km/h 4.6 mph /  7.4 km/h 92 % 0.02 in /  0.51 mm
03:14 60.0 °F /  15.6 °C 57.7 °F /  14.3 °C 30.16 in /  1021.2 hPa ESE 3.4 mph /  5.5 km/h 5.8 mph /  9.3 km/h 92 % 0.02 in /  0.51 mm
03:19 60.0 °F /  15.6 °C 57.7 °F /  14.3 °C 30.20 in /  1022.6 hPa East 3.3 mph /  5.3 km/h 5.0 mph /  8 km/h 92 % 0.02 in /  0.51 mm
03:24 60.1 °F /  15.6 °C 57.8 °F /  14.3 °C 30.16 in /  1021.2 hPa East 5.1 mph /  8.2 km/h 8.1 mph /  13 km/h 92 % 0.01 in /  0.25 mm
03:29 60.0 °F /  15.6 °C 57.4 °F /  14.1 °C 30.16 in /  1021.2 hPa ESE 4.2 mph /  6.8 km/h 6.9 mph /  11.1 km/h 91 % 0.01 in /  0.25 mm
03:34 59.9 °F /  15.5 °C 57.3 °F /  14.1 °C 30.21 in /  1022.9 hPa East 5.1 mph /  8.2 km/h 6.9 mph /  11.1 km/h 91 % 0.01 in /  0.25 mm
03:39 59.9 °F /  15.5 °C 57.3 °F /  14.1 °C 30.21 in /  1022.9 hPa ESE 4.8 mph /  7.7 km/h 7.0 mph /  11.3 km/h 91 % 0.01 in /  0.25 mm
03:44 60.0 °F /  15.6 °C 57.7 °F /  14.3 °C 30.21 in /  1022.9 hPa East 2.5 mph /  4 km/h 3.5 mph /  5.6 km/h 92 % 0.01 in /  0.25 mm
03:49 60.0 °F /  15.6 °C 57.7 °F /  14.3 °C 30.17 in /  1021.6 hPa East 4.2 mph /  6.8 km/h 6.0 mph /  9.7 km/h 92 % 0.01 in /  0.25 mm
03:54 59.9 °F /  15.5 °C 57.6 °F /  14.2 °C 30.18 in /  1021.9 hPa ESE 3.3 mph /  5.3 km/h 5.8 mph /  9.3 km/h 92 % 0.01 in /  0.25 mm
03:59 59.8 °F /  15.4 °C 57.8 °F /  14.3 °C 30.18 in /  1021.9 hPa East 2.4 mph /  3.9 km/h 4.6 mph /  7.4 km/h 93 % 0.01 in /  0.25 mm
04:04 59.8 °F /  15.4 °C 57.8 °F /  14.3 °C 30.22 in /  1023.2 hPa East 2.5 mph /  4 km/h 5.0 mph /  8 km/h 93 % 0.01 in /  0.25 mm
04:09 59.8 °F /  15.4 °C 57.8 °F /  14.3 °C 30.22 in /  1023.2 hPa ESE 2.6 mph /  4.2 km/h 5.0 mph /  8 km/h 93 % 0.01 in /  0.25 mm
04:14 59.7 °F /  15.4 °C 57.7 °F /  14.3 °C 30.18 in /  1021.9 hPa East 2.7 mph /  4.3 km/h 5.8 mph /  9.3 km/h 93 % 0.01 in /  0.25 mm
04:20 59.7 °F /  15.4 °C 57.7 °F /  14.3 °C 30.17 in /  1021.6 hPa East 3.5 mph /  5.6 km/h 5.0 mph /  8 km/h 93 % 0.02 in /  0.51 mm
04:25 59.7 °F /  15.4 °C 57.7 °F /  14.3 °C 30.17 in /  1021.6 hPa East 5.9 mph /  9.5 km/h 8.1 mph /  13 km/h 93 % 0.02 in /  0.51 mm
04:30 59.8 °F /  15.4 °C 58.1 °F /  14.5 °C 30.22 in /  1023.2 hPa ENE 6.0 mph /  9.7 km/h 9.2 mph /  14.8 km/h 94 % 0.02 in /  0.51 mm
04:35 59.7 °F /  15.4 °C 57.7 °F /  14.3 °C 30.20 in /  1022.6 hPa East 8.7 mph /  14 km/h 13.8 mph /  22.2 km/h 93 % 0.02 in /  0.51 mm
04:40 59.6 °F /  15.3 °C 57.6 °F /  14.2 °C 30.21 in /  1022.9 hPa ENE 10.5 mph /  16.9 km/h 13.8 mph /  22.2 km/h 93 % 0.02 in /  0.51 mm
04:45 59.6 °F /  15.3 °C 57.6 °F /  14.2 °C 30.20 in /  1022.6 hPa ENE 7.2 mph /  11.6 km/h 11.5 mph /  18.5 km/h 93 % 0.02 in /  0.51 mm
04:50 59.6 °F /  15.3 °C 57.6 °F /  14.2 °C 30.20 in /  1022.6 hPa East 6.4 mph /  10.3 km/h 9.0 mph /  14.5 km/h 93 % 0.03 in /  0.76 mm
04:55 59.5 °F /  15.3 °C 57.2 °F /  14 °C 30.21 in /  1022.9 hPa ENE 6.0 mph /  9.7 km/h 6.9 mph /  11.1 km/h 92 % 0.03 in /  0.76 mm
05:00 59.6 °F /  15.3 °C 57.6 °F /  14.2 °C 30.21 in /  1022.9 hPa East 7.3 mph /  11.7 km/h 11.5 mph /  18.5 km/h 93 % 0.02 in /  0.51 mm
05:05 59.8 °F /  15.4 °C 57.5 °F /  14.2 °C 30.25 in /  1024.3 hPa ENE 9.4 mph /  15.1 km/h 15.0 mph /  24.1 km/h 92 % 0.02 in /  0.51 mm
05:10 59.8 °F /  15.4 °C 57.5 °F /  14.2 °C 30.25 in /  1024.3 hPa ENE 10.8 mph /  17.4 km/h 15.0 mph /  24.1 km/h 92 % 0.02 in /  0.51 mm
05:15 59.8 °F /  15.4 °C 57.2 °F /  14 °C 30.25 in /  1024.3 hPa ENE 10.0 mph /  16.1 km/h 13.8 mph /  22.2 km/h 91 % 0.01 in /  0.25 mm
05:20 59.8 °F /  15.4 °C 56.6 °F /  13.7 °C 30.20 in /  1022.6 hPa ENE 10.7 mph /  17.2 km/h 13.8 mph /  22.2 km/h 89 % 0.01 in /  0.25 mm
05:40 59.9 °F /  15.5 °C 57.0 °F /  13.9 °C 30.24 in /  1023.9 hPa ENE 9.0 mph /  14.5 km/h 14.0 mph /  22.5 km/h 90 % 0.00 in /  0 mm
05:50 59.6 °F /  15.3 °C 56.7 °F /  13.7 °C 30.22 in /  1023.2 hPa ENE 6.0 mph /  9.7 km/h 15.0 mph /  24.1 km/h 90 % 0.00 in /  0 mm
05:55 59.6 °F /  15.3 °C 56.7 °F /  13.7 °C 30.25 in /  1024.3 hPa ENE 12.0 mph /  19.3 km/h 20.0 mph /  32.2 km/h 90 % 0.01 in /  0.25 mm
06:05 59.3 °F /  15.2 °C 56.1 °F /  13.4 °C 30.26 in /  1024.6 hPa ENE 12.0 mph /  19.3 km/h 22.0 mph /  35.4 km/h 89 % 0.00 in /  0 mm
06:10 59.3 °F /  15.2 °C 56.1 °F /  13.4 °C 30.25 in /  1024.3 hPa ENE 12.0 mph /  19.3 km/h 19.0 mph /  30.6 km/h 89 % 0.00 in /  0 mm
06:15 59.3 °F /  15.2 °C 56.1 °F /  13.4 °C 30.22 in /  1023.2 hPa ENE 7.0 mph /  11.3 km/h 19.0 mph /  30.6 km/h 89 % 0.00 in /  0 mm
06:25 59.3 °F /  15.2 °C 55.4 °F /  13 °C 30.26 in /  1024.6 hPa ENE 12.0 mph /  19.3 km/h 18.0 mph /  29 km/h 87 % 0.00 in /  0 mm
06:35 59.3 °F /  15.2 °C 55.1 °F /  12.8 °C 30.21 in /  1022.9 hPa ENE 12.0 mph /  19.3 km/h 17.0 mph /  27.4 km/h 86 % 0.00 in /  0 mm
06:40 59.3 °F /  15.2 °C 55.1 °F /  12.8 °C 30.22 in /  1023.2 hPa East 9.0 mph /  14.5 km/h 17.0 mph /  27.4 km/h 86 % 0.00 in /  0 mm
06:45 59.2 °F /  15.1 °C 54.7 °F /  12.6 °C 30.23 in /  1023.6 hPa ENE 10.0 mph /  16.1 km/h 16.0 mph /  25.7 km/h 85 % 0.00 in /  0 mm
06:50 59.1 °F /  15.1 °C 54.3 °F /  12.4 °C 30.23 in /  1023.6 hPa ENE 12.0 mph /  19.3 km/h 17.0 mph /  27.4 km/h 84 % 0.00 in /  0 mm
06:55 59.1 °F /  15.1 °C 54.3 °F /  12.4 °C 30.23 in /  1023.6 hPa ENE 9.0 mph /  14.5 km/h 16.0 mph /  25.7 km/h 84 % 0.00 in /  0 mm
07:05 58.9 °F /  14.9 °C 54.1 °F /  12.3 °C 30.23 in /  1023.6 hPa ENE 9.0 mph /  14.5 km/h 20.0 mph /  32.2 km/h 84 % 0.00 in /  0 mm
07:10 58.8 °F /  14.9 °C 54.3 °F /  12.4 °C 30.22 in /  1023.2 hPa ENE 8.0 mph /  12.9 km/h 18.0 mph /  29 km/h 85 % 0.00 in /  0 mm
07:15 58.7 °F /  14.8 °C 53.9 °F /  12.2 °C 30.24 in /  1023.9 hPa ENE 8.0 mph /  12.9 km/h 16.0 mph /  25.7 km/h 84 % 0.00 in /  0 mm
07:20 58.6 °F /  14.8 °C 53.5 °F /  11.9 °C 30.24 in /  1023.9 hPa ENE 10.0 mph /  16.1 km/h 15.0 mph /  24.1 km/h 83 % 0.00 in /  0 mm
07:25 58.6 °F /  14.8 °C 53.5 °F /  11.9 °C 30.24 in /  1023.9 hPa ENE 10.0 mph /  16.1 km/h 14.0 mph /  22.5 km/h 83 % 0.00 in /  0 mm
07:30 58.6 °F /  14.8 °C 53.8 °F /  12.1 °C 30.24 in /  1023.9 hPa ENE 6.0 mph /  9.7 km/h 15.0 mph /  24.1 km/h 84 % 0.00 in /  0 mm
07:35 58.5 °F /  14.7 °C 53.7 °F /  12.1 °C 30.25 in /  1024.3 hPa East 9.0 mph /  14.5 km/h 14.0 mph /  22.5 km/h 84 % 0.00 in /  0 mm
07:40 58.5 °F /  14.7 °C 53.7 °F /  12.1 °C 30.25 in /  1024.3 hPa East 9.0 mph /  14.5 km/h 11.0 mph /  17.7 km/h 84 % 0.00 in /  0 mm
07:45 58.5 °F /  14.7 °C 53.7 °F /  12.1 °C 30.25 in /  1024.3 hPa ENE 9.0 mph /  14.5 km/h 16.0 mph /  25.7 km/h 84 % 0.00 in /  0 mm
07:50 58.5 °F /  14.7 °C 53.4 °F /  11.9 °C 30.25 in /  1024.3 hPa ENE 9.0 mph /  14.5 km/h 19.0 mph /  30.6 km/h 83 % 0.00 in /  0 mm
07:55 58.5 °F /  14.7 °C 53.7 °F /  12.1 °C 30.26 in /  1024.6 hPa ENE 7.0 mph /  11.3 km/h 16.0 mph /  25.7 km/h 84 % 0.00 in /  0 mm
08:05 58.4 °F /  14.7 °C 53.9 °F /  12.2 °C 30.26 in /  1024.6 hPa East 6.0 mph /  9.7 km/h 17.0 mph /  27.4 km/h 85 % 0.00 in /  0 mm
08:10 58.4 °F /  14.7 °C 53.6 °F /  12 °C 30.26 in /  1024.6 hPa ENE 9.0 mph /  14.5 km/h 15.0 mph /  24.1 km/h 84 % 0.00 in /  0 mm
08:15 58.4 °F /  14.7 °C 53.6 °F /  12 °C 30.26 in /  1024.6 hPa ENE 12.0 mph /  19.3 km/h 22.0 mph /  35.4 km/h 84 % 0.00 in /  0 mm
08:20 58.4 °F /  14.7 °C 53.6 °F /  12 °C 30.27 in /  1024.9 hPa ENE 12.0 mph /  19.3 km/h 17.0 mph /  27.4 km/h 84 % 0.00 in /  0 mm
08:25 58.2 °F /  14.6 °C 53.7 °F /  12.1 °C 30.27 in /  1024.9 hPa ENE 10.0 mph /  16.1 km/h 17.0 mph /  27.4 km/h 85 % 0.00 in /  0 mm
08:30 58.1 °F /  14.5 °C 53.6 °F /  12 °C 30.27 in /  1024.9 hPa ENE 10.0 mph /  16.1 km/h 16.0 mph /  25.7 km/h 85 % 0.00 in /  0 mm
08:35 58.1 °F /  14.5 °C 53.6 °F /  12 °C 30.27 in /  1024.9 hPa ENE 8.0 mph /  12.9 km/h 13.0 mph /  20.9 km/h 85 % 0.00 in /  0 mm
08:40 58.1 °F /  14.5 °C 53.9 °F /  12.2 °C 30.27 in /  1024.9 hPa ENE 10.0 mph /  16.1 km/h 16.0 mph /  25.7 km/h 86 % 0.00 in /  0 mm
08:45 58.1 °F /  14.5 °C 53.6 °F /  12 °C 30.28 in /  1025.3 hPa ENE 12.0 mph /  19.3 km/h 19.0 mph /  30.6 km/h 85 % 0.00 in /  0 mm
08:50 58.2 °F /  14.6 °C 53.7 °F /  12.1 °C 30.28 in /  1025.3 hPa ENE 9.0 mph /  14.5 km/h 16.0 mph /  25.7 km/h 85 % 0.00 in /  0 mm
08:55 58.3 °F /  14.6 °C 53.8 °F /  12.1 °C 30.28 in /  1025.3 hPa ENE 8.0 mph /  12.9 km/h 20.0 mph /  32.2 km/h 85 % 0.00 in /  0 mm
09:05 58.5 °F /  14.7 °C 54.0 °F /  12.2 °C 30.28 in /  1025.3 hPa ENE 8.0 mph /  12.9 km/h 18.0 mph /  29 km/h 85 % 0.00 in /  0 mm
09:10 58.6 °F /  14.8 °C 54.1 °F /  12.3 °C 30.28 in /  1025.3 hPa ENE 9.0 mph /  14.5 km/h 16.0 mph /  25.7 km/h 85 % 0.00 in /  0 mm
09:15 58.7 °F /  14.8 °C 54.2 °F /  12.3 °C 30.28 in /  1025.3 hPa ENE 12.0 mph /  19.3 km/h 19.0 mph /  30.6 km/h 85 % 0.00 in /  0 mm
09:20 58.7 °F /  14.8 °C 54.2 °F /  12.3 °C 30.28 in /  1025.3 hPa ENE 8.0 mph /  12.9 km/h 19.0 mph /  30.6 km/h 85 % 0.00 in /  0 mm
09:25 58.8 °F /  14.9 °C 54.0 °F /  12.2 °C 30.29 in /  1025.6 hPa ENE 10.0 mph /  16.1 km/h 18.0 mph /  29 km/h 84 % 0.00 in /  0 mm
09:30 58.7 °F /  14.8 °C 53.5 °F /  11.9 °C 30.29 in /  1025.6 hPa ENE 12.0 mph /  19.3 km/h 17.0 mph /  27.4 km/h 83 % 0.00 in /  0 mm
09:35 58.7 °F /  14.8 °C 53.5 °F /  11.9 °C 30.30 in /  1026 hPa ENE 6.0 mph /  9.7 km/h 17.0 mph /  27.4 km/h 83 % 0.00 in /  0 mm
09:40 58.7 °F /  14.8 °C 53.5 °F /  11.9 °C 30.30 in /  1026 hPa ENE 10.0 mph /  16.1 km/h 16.0 mph /  25.7 km/h 83 % 0.00 in /  0 mm
09:45 58.7 °F /  14.8 °C 53.9 °F /  12.2 °C 30.30 in /  1026 hPa ENE 7.0 mph /  11.3 km/h 15.0 mph /  24.1 km/h 84 % 0.00 in /  0 mm
09:50 58.8 °F /  14.9 °C 54.0 °F /  12.2 °C 30.30 in /  1026 hPa ENE 9.0 mph /  14.5 km/h 14.0 mph /  22.5 km/h 84 % 0.00 in /  0 mm
09:55 58.8 °F /  14.9 °C 53.6 °F /  12 °C 30.29 in /  1025.6 hPa ENE 6.0 mph /  9.7 km/h 16.0 mph /  25.7 km/h 83 % 0.00 in /  0 mm
10:05 58.8 °F /  14.9 °C 53.6 °F /  12 °C 30.30 in /  1026 hPa ENE 8.0 mph /  12.9 km/h 17.0 mph /  27.4 km/h 83 % 0.00 in /  0 mm
10:10 58.8 °F /  14.9 °C 53.6 °F /  12 °C 30.35 in /  1027.7 hPa ENE 6.0 mph /  9.7 km/h 11.0 mph /  17.7 km/h 83 % 0.00 in /  0 mm
10:15 58.9 °F /  14.9 °C 53.7 °F /  12.1 °C 30.30 in /  1026 hPa ENE 7.0 mph /  11.3 km/h 12.0 mph /  19.3 km/h 83 % 0.00 in /  0 mm
10:20 58.8 °F /  14.9 °C 53.3 °F /  11.8 °C 30.30 in /  1026 hPa ENE 6.0 mph /  9.7 km/h 16.0 mph /  25.7 km/h 82 % 0.00 in /  0 mm
10:25 58.8 °F /  14.9 °C 53.3 °F /  11.8 °C 30.31 in /  1026.3 hPa ENE 9.0 mph /  14.5 km/h 13.0 mph /  20.9 km/h 82 % 0.00 in /  0 mm
10:30 58.8 °F /  14.9 °C 53.3 °F /  11.8 °C 30.30 in /  1026 hPa East 6.0 mph /  9.7 km/h 11.0 mph /  17.7 km/h 82 % 0.00 in /  0 mm
10:35 58.8 °F /  14.9 °C 53.3 °F /  11.8 °C 30.30 in /  1026 hPa East 7.0 mph /  11.3 km/h 17.0 mph /  27.4 km/h 82 % 0.00 in /  0 mm
10:44 58.9 °F /  14.9 °C 53.4 °F /  11.9 °C 30.35 in /  1027.7 hPa ENE 9.2 mph /  14.8 km/h 22.0 mph /  35.4 km/h 82 % 0.00 in /  0 mm
10:49 58.9 °F /  14.9 °C 53.4 °F /  11.9 °C 30.35 in /  1027.7 hPa East 7.3 mph /  11.7 km/h 13.8 mph /  22.2 km/h 82 % 0.00 in /  0 mm
10:52 59.0 °F /  15 °C 53.5 °F /  11.9 °C 30.35 in /  1027.7 hPa East 6.5 mph /  10.5 km/h 8.1 mph /  13 km/h 82 % 0.00 in /  0 mm
10:57 59.0 °F /  15 °C 53.5 °F /  11.9 °C 30.35 in /  1027.7 hPa ENE 10.3 mph /  16.6 km/h 15.0 mph /  24.1 km/h 82 % 0.00 in /  0 mm
11:02 59.1 °F /  15.1 °C 53.6 °F /  12 °C 30.35 in /  1027.7 hPa ENE 8.6 mph /  13.8 km/h 15.0 mph /  24.1 km/h 82 % 0.00 in /  0 mm
11:07 59.2 °F /  15.1 °C 53.4 °F /  11.9 °C 30.35 in /  1027.7 hPa East 6.7 mph /  10.8 km/h 9.2 mph /  14.8 km/h 81 % 0.00 in /  0 mm
11:12 59.2 °F /  15.1 °C 53.4 °F /  11.9 °C 30.35 in /  1027.7 hPa East 7.5 mph /  12.1 km/h 13.8 mph /  22.2 km/h 81 % 0.00 in /  0 mm
11:17 59.3 °F /  15.2 °C 53.8 °F /  12.1 °C 30.35 in /  1027.7 hPa East 9.2 mph /  14.8 km/h 14.0 mph /  22.5 km/h 82 % 0.00 in /  0 mm
11:22 59.4 °F /  15.2 °C 53.2 °F /  11.8 °C 30.36 in /  1028 hPa ENE 8.3 mph /  13.4 km/h 17.3 mph /  27.8 km/h 80 % 0.00 in /  0 mm
11:27 59.5 °F /  15.3 °C 53.3 °F /  11.8 °C 30.32 in /  1026.6 hPa East 5.6 mph /  9 km/h 6.9 mph /  11.1 km/h 80 % 0.00 in /  0 mm
11:32 59.5 °F /  15.3 °C 53.3 °F /  11.8 °C 30.35 in /  1027.7 hPa East 6.3 mph /  10.1 km/h 8.1 mph /  13 km/h 80 % 0.00 in /  0 mm
11:37 59.6 °F /  15.3 °C 53.4 °F /  11.9 °C 30.32 in /  1026.6 hPa East 5.4 mph /  8.7 km/h 6.9 mph /  11.1 km/h 80 % 0.00 in /  0 mm
11:42 59.6 °F /  15.3 °C 53.1 °F /  11.7 °C 30.31 in /  1026.3 hPa ENE 5.6 mph /  9 km/h 10.4 mph /  16.7 km/h 79 % 0.00 in /  0 mm
11:47 59.7 °F /  15.4 °C 53.2 °F /  11.8 °C 30.33 in /  1027 hPa East 5.6 mph /  9 km/h 11.5 mph /  18.5 km/h 79 % 0.00 in /  0 mm
11:52 59.9 °F /  15.5 °C 53.7 °F /  12.1 °C 30.31 in /  1026.3 hPa ENE 8.4 mph /  13.5 km/h 9.0 mph /  14.5 km/h 80 % 0.00 in /  0 mm
11:57 60.0 °F /  15.6 °C 53.5 °F /  11.9 °C 30.36 in /  1028 hPa ENE 6.0 mph /  9.7 km/h 11.5 mph /  18.5 km/h 79 % 0.00 in /  0 mm
12:02 60.2 °F /  15.7 °C 53.7 °F /  12.1 °C 30.36 in /  1028 hPa ENE 6.7 mph /  10.8 km/h 8.1 mph /  13 km/h 79 % 0.00 in /  0 mm
12:07 60.6 °F /  15.9 °C 53.7 °F /  12.1 °C 30.36 in /  1028 hPa East 6.2 mph /  10 km/h 8.0 mph /  12.9 km/h 78 % 0.00 in /  0 mm
12:12 60.9 °F /  16.1 °C 54.0 °F /  12.2 °C 30.36 in /  1028 hPa East 5.8 mph /  9.3 km/h 6.9 mph /  11.1 km/h 78 % 0.00 in /  0 mm
12:17 61.0 °F /  16.1 °C 53.4 °F /  11.9 °C 30.36 in /  1028 hPa ENE 5.6 mph /  9 km/h 11.5 mph /  18.5 km/h 76 % 0.00 in /  0 mm
12:22 61.0 °F /  16.1 °C 53.4 °F /  11.9 °C 30.32 in /  1026.6 hPa ENE 6.6 mph /  10.6 km/h 9.0 mph /  14.5 km/h 76 % 0.00 in /  0 mm
12:27 61.0 °F /  16.1 °C 53.0 °F /  11.7 °C 30.31 in /  1026.3 hPa ENE 7.3 mph /  11.7 km/h 11.5 mph /  18.5 km/h 75 % 0.00 in /  0 mm
12:32 61.2 °F /  16.2 °C 53.2 °F /  11.8 °C 30.31 in /  1026.3 hPa East 6.2 mph /  10 km/h 11.5 mph /  18.5 km/h 75 % 0.00 in /  0 mm
12:37 61.4 °F /  16.3 °C 53.4 °F /  11.9 °C 30.31 in /  1026.3 hPa East 5.4 mph /  8.7 km/h 7.0 mph /  11.3 km/h 75 % 0.00 in /  0 mm
12:42 62.0 °F /  16.7 °C 52.9 °F /  11.6 °C 30.32 in /  1026.6 hPa ENE 5.0 mph /  8 km/h 12.7 mph /  20.4 km/h 72 % 0.00 in /  0 mm
12:44 62.0 °F /  16.7 °C 52.9 °F /  11.6 °C 30.31 in /  1026.3 hPa East 6.5 mph /  10.5 km/h 11.5 mph /  18.5 km/h 72 % 0.00 in /  0 mm
12:49 62.0 °F /  16.7 °C 53.2 °F /  11.8 °C 30.35 in /  1027.7 hPa East 6.3 mph /  10.1 km/h 11.5 mph /  18.5 km/h 73 % 0.00 in /  0 mm
12:54 62.1 °F /  16.7 °C 53.0 °F /  11.7 °C 30.35 in /  1027.7 hPa East 4.8 mph /  7.7 km/h 6.9 mph /  11.1 km/h 72 % 0.00 in /  0 mm
12:59 62.1 °F /  16.7 °C 52.6 °F /  11.4 °C 30.30 in /  1026 hPa East 5.2 mph /  8.4 km/h 6.9 mph /  11.1 km/h 71 % 0.00 in /  0 mm
13:04 61.9 °F /  16.6 °C 52.4 °F /  11.3 °C 30.31 in /  1026.3 hPa East 3.3 mph /  5.3 km/h 5.0 mph /  8 km/h 71 % 0.00 in /  0 mm
13:09 61.9 °F /  16.6 °C 52.8 °F /  11.6 °C 30.30 in /  1026 hPa ENE 4.2 mph /  6.8 km/h 4.6 mph /  7.4 km/h 72 % 0.00 in /  0 mm
13:14 62.4 °F /  16.9 °C 53.3 °F /  11.8 °C 30.30 in /  1026 hPa ENE 4.9 mph /  7.9 km/h 11.5 mph /  18.5 km/h 72 % 0.00 in /  0 mm
13:19 62.3 °F /  16.8 °C 52.8 °F /  11.6 °C 30.30 in /  1026 hPa ENE 7.1 mph /  11.4 km/h 11.5 mph /  18.5 km/h 71 % 0.00 in /  0 mm
13:24 62.2 °F /  16.8 °C 52.3 °F /  11.3 °C 30.30 in /  1026 hPa East 6.0 mph /  9.7 km/h 10.4 mph /  16.7 km/h 70 % 0.00 in /  0 mm
13:29 61.9 °F /  16.6 °C 52.4 °F /  11.3 °C 30.29 in /  1025.6 hPa ENE 4.0 mph /  6.4 km/h 5.0 mph /  8 km/h 71 % 0.00 in /  0 mm
13:34 61.7 °F /  16.5 °C 52.6 °F /  11.4 °C 30.29 in /  1025.6 hPa NE 5.6 mph /  9 km/h 8.1 mph /  13 km/h 72 % 0.00 in /  0 mm
13:39 62.2 °F /  16.8 °C 53.4 °F /  11.9 °C 30.29 in /  1025.6 hPa ENE 7.4 mph /  11.9 km/h 12.0 mph /  19.3 km/h 73 % 0.00 in /  0 mm
13:44 62.5 °F /  16.9 °C 53.3 °F /  11.8 °C 30.29 in /  1025.6 hPa East 5.6 mph /  9 km/h 9.2 mph /  14.8 km/h 72 % 0.00 in /  0 mm
13:49 62.4 °F /  16.9 °C 52.1 °F /  11.2 °C 30.29 in /  1025.6 hPa ENE 4.2 mph /  6.8 km/h 12.7 mph /  20.4 km/h 69 % 0.00 in /  0 mm
13:54 62.7 °F /  17.1 °C 52.0 °F /  11.1 °C 30.29 in /  1025.6 hPa ENE 4.9 mph /  7.9 km/h 10.4 mph /  16.7 km/h 68 % 0.00 in /  0 mm
13:59 63.0 °F /  17.2 °C 52.7 °F /  11.5 °C 30.29 in /  1025.6 hPa ENE 6.4 mph /  10.3 km/h 10.4 mph /  16.7 km/h 69 % 0.00 in /  0 mm
14:04 63.0 °F /  17.2 °C 51.9 °F /  11.1 °C 30.29 in /  1025.6 hPa ENE 8.4 mph /  13.5 km/h 15.0 mph /  24.1 km/h 67 % 0.00 in /  0 mm
14:09 63.4 °F /  17.4 °C 53.4 °F /  11.9 °C 30.29 in /  1025.6 hPa East 4.2 mph /  6.8 km/h 9.0 mph /  14.5 km/h 70 % 0.00 in /  0 mm
14:15 63.9 °F /  17.7 °C 53.1 °F /  11.7 °C 30.28 in /  1025.3 hPa ENE 3.6 mph /  5.8 km/h 12.7 mph /  20.4 km/h 68 % 0.00 in /  0 mm
14:20 64.4 °F /  18 °C 53.2 °F /  11.8 °C 30.28 in /  1025.3 hPa ENE 3.9 mph /  6.3 km/h 5.8 mph /  9.3 km/h 67 % 0.00 in /  0 mm
14:25 64.8 °F /  18.2 °C 53.2 °F /  11.8 °C 30.28 in /  1025.3 hPa East 4.2 mph /  6.8 km/h 5.8 mph /  9.3 km/h 66 % 0.00 in /  0 mm
14:30 65.0 °F /  18.3 °C 52.9 °F /  11.6 °C 30.28 in /  1025.3 hPa East 3.4 mph /  5.5 km/h 10.4 mph /  16.7 km/h 65 % 0.00 in /  0 mm
14:35 65.3 °F /  18.5 °C 53.2 °F /  11.8 °C 30.28 in /  1025.3 hPa ENE 3.0 mph /  4.8 km/h 4.6 mph /  7.4 km/h 65 % 0.00 in /  0 mm
14:40 65.4 °F /  18.6 °C 52.9 °F /  11.6 °C 30.28 in /  1025.3 hPa ENE 3.3 mph /  5.3 km/h 4.6 mph /  7.4 km/h 64 % 0.00 in /  0 mm
14:45 65.4 °F /  18.6 °C 52.0 °F /  11.1 °C 30.29 in /  1025.6 hPa East 4.4 mph /  7.1 km/h 6.0 mph /  9.7 km/h 62 % 0.00 in /  0 mm
14:50 65.4 °F /  18.6 °C 52.5 °F /  11.4 °C 30.28 in /  1025.3 hPa East 4.1 mph /  6.6 km/h 5.0 mph /  8 km/h 63 % 0.00 in /  0 mm
14:55 65.4 °F /  18.6 °C 52.5 °F /  11.4 °C 30.27 in /  1024.9 hPa East 3.1 mph /  5 km/h 6.0 mph /  9.7 km/h 63 % 0.00 in /  0 mm
15:00 65.3 °F /  18.5 °C 51.9 °F /  11.1 °C 30.33 in /  1027 hPa East 3.0 mph /  4.8 km/h 4.6 mph /  7.4 km/h 62 % 0.00 in /  0 mm
15:05 65.2 °F /  18.4 °C 51.8 °F /  11 °C 30.33 in /  1027 hPa East 3.3 mph /  5.3 km/h 5.0 mph /  8 km/h 62 % 0.00 in /  0 mm
15:10 65.0 °F /  18.3 °C 51.7 °F /  10.9 °C 30.33 in /  1027 hPa ENE 2.5 mph /  4 km/h 4.0 mph /  6.4 km/h 62 % 0.00 in /  0 mm
15:16 64.9 °F /  18.3 °C 51.5 °F /  10.8 °C 30.32 in /  1026.6 hPa East 2.0 mph /  3.2 km/h 7.0 mph /  11.3 km/h 62 % 0.00 in /  0 mm
15:21 64.7 °F /  18.2 °C 51.4 °F /  10.8 °C 30.28 in /  1025.3 hPa East 3.0 mph /  4.8 km/h 8.0 mph /  12.9 km/h 62 % 0.00 in /  0 mm
15:26 64.5 °F /  18.1 °C 52.0 °F /  11.1 °C 30.32 in /  1026.6 hPa East 3.0 mph /  4.8 km/h 12.0 mph /  19.3 km/h 64 % 0.00 in /  0 mm
15:31 64.3 °F /  17.9 °C 51.4 °F /  10.8 °C 30.32 in /  1026.6 hPa East 3.0 mph /  4.8 km/h 6.0 mph /  9.7 km/h 63 % 0.00 in /  0 mm
15:36 64.0 °F /  17.8 °C 51.2 °F /  10.7 °C 30.32 in /  1026.6 hPa East 2.0 mph /  3.2 km/h 5.0 mph /  8 km/h 63 % 0.00 in /  0 mm
15:41 63.9 °F /  17.7 °C 51.5 °F /  10.8 °C 30.28 in /  1025.3 hPa East 2.0 mph /  3.2 km/h 8.0 mph /  12.9 km/h 64 % 0.00 in /  0 mm
15:46 63.6 °F /  17.6 °C 50.8 °F /  10.4 °C 30.28 in /  1025.3 hPa ENE 2.5 mph /  4 km/h 4.0 mph /  6.4 km/h 63 % 0.00 in /  0 mm
15:51 63.6 °F /  17.6 °C 51.2 °F /  10.7 °C 30.27 in /  1024.9 hPa East 3.3 mph /  5.3 km/h 5.0 mph /  8 km/h 64 % 0.00 in /  0 mm
15:56 63.4 °F /  17.4 °C 51.0 °F /  10.6 °C 30.27 in /  1024.9 hPa ENE 3.0 mph /  4.8 km/h 3.5 mph /  5.6 km/h 64 % 0.00 in /  0 mm
16:01 63.4 °F /  17.4 °C 50.6 °F /  10.3 °C 30.27 in /  1024.9 hPa ENE 2.6 mph /  4.2 km/h 9.2 mph /  14.8 km/h 63 % 0.00 in /  0 mm
16:06 63.2 °F /  17.3 °C 50.8 °F /  10.4 °C 30.27 in /  1024.9 hPa ENE 3.0 mph /  4.8 km/h 9.0 mph /  14.5 km/h 64 % 0.00 in /  0 mm
16:11 63.1 °F /  17.3 °C 50.7 °F /  10.4 °C 30.32 in /  1026.6 hPa ENE 3.0 mph /  4.8 km/h 9.0 mph /  14.5 km/h 64 % 0.00 in /  0 mm
16:16 63.1 °F /  17.3 °C 51.1 °F /  10.6 °C 30.27 in /  1024.9 hPa East 2.0 mph /  3.2 km/h 6.0 mph /  9.7 km/h 65 % 0.00 in /  0 mm
16:21 63.0 °F /  17.2 °C 51.0 °F /  10.6 °C 30.27 in /  1024.9 hPa East 3.0 mph /  4.8 km/h 5.0 mph /  8 km/h 65 % 0.00 in /  0 mm
16:26 62.9 °F /  17.2 °C 51.0 °F /  10.6 °C 30.28 in /  1025.3 hPa East 2.0 mph /  3.2 km/h 5.0 mph /  8 km/h 65 % 0.00 in /  0 mm
16:31 62.9 °F /  17.2 °C 50.5 °F /  10.3 °C 30.28 in /  1025.3 hPa East 3.0 mph /  4.8 km/h 6.0 mph /  9.7 km/h 64 % 0.00 in /  0 mm
16:36 62.7 °F /  17.1 °C 50.4 °F /  10.2 °C 30.29 in /  1025.6 hPa East 2.0 mph /  3.2 km/h 7.0 mph /  11.3 km/h 64 % 0.00 in /  0 mm
16:41 62.7 °F /  17.1 °C 50.3 °F /  10.2 °C 30.32 in /  1026.6 hPa East 5.0 mph /  8 km/h 7.0 mph /  11.3 km/h 64 % 0.00 in /  0 mm
16:46 62.6 °F /  17 °C 50.7 °F /  10.4 °C 30.32 in /  1026.6 hPa East 3.0 mph /  4.8 km/h 5.0 mph /  8 km/h 65 % 0.00 in /  0 mm
16:51 62.5 °F /  16.9 °C 50.2 °F /  10.1 °C 30.32 in /  1026.6 hPa East 2.0 mph /  3.2 km/h 13.0 mph /  20.9 km/h 64 % 0.00 in /  0 mm
16:56 62.5 °F /  16.9 °C 51.0 °F /  10.6 °C 30.32 in /  1026.6 hPa East 3.0 mph /  4.8 km/h 6.0 mph /  9.7 km/h 66 % 0.00 in /  0 mm
17:01 62.4 °F /  16.9 °C 50.9 °F /  10.5 °C 30.32 in /  1026.6 hPa East 3.0 mph /  4.8 km/h 4.6 mph /  7.4 km/h 66 % 0.00 in /  0 mm
17:06 62.3 °F /  16.8 °C 50.8 °F /  10.4 °C 30.33 in /  1027 hPa East 2.1 mph /  3.4 km/h 5.8 mph /  9.3 km/h 66 % 0.00 in /  0 mm
17:11 62.2 °F /  16.8 °C 50.7 °F /  10.4 °C 30.28 in /  1025.3 hPa East 2.0 mph /  3.2 km/h 4.6 mph /  7.4 km/h 66 % 0.00 in /  0 mm
17:16 62.1 °F /  16.7 °C 50.2 °F /  10.1 °C 30.28 in /  1025.3 hPa East 3.3 mph /  5.3 km/h 4.6 mph /  7.4 km/h 65 % 0.00 in /  0 mm
17:21 62.0 °F /  16.7 °C 50.1 °F /  10.1 °C 30.33 in /  1027 hPa East 3.3 mph /  5.3 km/h 5.0 mph /  8 km/h 65 % 0.00 in /  0 mm
17:26 61.9 °F /  16.6 °C 50.0 °F /  10 °C 30.33 in /  1027 hPa East 2.7 mph /  4.3 km/h 5.8 mph /  9.3 km/h 65 % 0.00 in /  0 mm
17:31 61.8 °F /  16.6 °C 50.7 °F /  10.4 °C 30.33 in /  1027 hPa East 3.4 mph /  5.5 km/h 6.9 mph /  11.1 km/h 67 % 0.00 in /  0 mm
17:36 61.7 °F /  16.5 °C 50.6 °F /  10.3 °C 30.33 in /  1027 hPa East 1.9 mph /  3.1 km/h 4.6 mph /  7.4 km/h 67 % 0.00 in /  0 mm
17:41 61.6 °F /  16.4 °C 50.1 °F /  10.1 °C 30.33 in /  1027 hPa East 2.8 mph /  4.5 km/h 4.6 mph /  7.4 km/h 66 % 0.00 in /  0 mm
17:46 61.5 °F /  16.4 °C 50.4 °F /  10.2 °C 30.33 in /  1027 hPa East 2.0 mph /  3.2 km/h 3.5 mph /  5.6 km/h 67 % 0.00 in /  0 mm
17:51 61.4 °F /  16.3 °C 50.3 °F /  10.2 °C 30.34 in /  1027.3 hPa East 2.3 mph /  3.7 km/h 3.5 mph /  5.6 km/h 67 % 0.00 in /  0 mm
17:56 61.3 °F /  16.3 °C 50.2 °F /  10.1 °C 30.34 in /  1027.3 hPa SE 1.6 mph /  2.6 km/h 3.5 mph /  5.6 km/h 67 % 0.00 in /  0 mm
18:01 61.2 °F /  16.2 °C 50.6 °F /  10.3 °C 30.33 in /  1027 hPa ESE 1.3 mph /  2.1 km/h 3.5 mph /  5.6 km/h 68 % 0.00 in /  0 mm
18:06 61.1 °F /  16.2 °C 50.5 °F /  10.3 °C 30.30 in /  1026 hPa East 1.2 mph /  1.9 km/h 3.5 mph /  5.6 km/h 68 % 0.00 in /  0 mm
18:12 60.9 °F /  16.1 °C 50.7 °F /  10.4 °C 30.30 in /  1026 hPa East 1.2 mph /  1.9 km/h 2.3 mph /  3.7 km/h 69 % 0.00 in /  0 mm
18:17 60.8 °F /  16 °C 50.2 °F /  10.1 °C 30.31 in /  1026.3 hPa East 1.2 mph /  1.9 km/h 6.9 mph /  11.1 km/h 68 % 0.00 in /  0 mm
18:22 60.6 °F /  15.9 °C 49.6 °F /  9.8 °C 30.31 in /  1026.3 hPa SE 1.6 mph /  2.6 km/h 3.5 mph /  5.6 km/h 67 % 0.00 in /  0 mm
18:27 60.4 °F /  15.8 °C 49.8 °F /  9.9 °C 30.31 in /  1026.3 hPa ESE 0.9 mph /  1.4 km/h 3.5 mph /  5.6 km/h 68 % 0.00 in /  0 mm
18:32 60.2 °F /  15.7 °C 49.6 °F /  9.8 °C 30.31 in /  1026.3 hPa SE 1.8 mph /  2.9 km/h 4.6 mph /  7.4 km/h 68 % 0.00 in /  0 mm
18:37 59.9 °F /  15.5 °C 49.3 °F /  9.6 °C 30.31 in /  1026.3 hPa ESE 2.3 mph /  3.7 km/h 3.5 mph /  5.6 km/h 68 % 0.00 in /  0 mm
18:42 59.6 °F /  15.3 °C 49.4 °F /  9.7 °C 30.31 in /  1026.3 hPa SE 0.9 mph /  1.4 km/h 3.0 mph /  4.8 km/h 69 % 0.00 in /  0 mm
18:47 59.4 °F /  15.2 °C 49.2 °F /  9.6 °C 30.31 in /  1026.3 hPa SE 1.3 mph /  2.1 km/h 2.3 mph /  3.7 km/h 69 % 0.00 in /  0 mm
18:52 59.2 °F /  15.1 °C 49.4 °F /  9.7 °C 30.31 in /  1026.3 hPa ESE 2.0 mph /  3.2 km/h 3.5 mph /  5.6 km/h 70 % 0.00 in /  0 mm
18:57 58.9 °F /  14.9 °C 49.1 °F /  9.5 °C 30.31 in /  1026.3 hPa SE 0.6 mph /  1 km/h 1.2 mph /  1.9 km/h 70 % 0.00 in /  0 mm
19:02 58.8 °F /  14.9 °C 49.0 °F /  9.4 °C 30.31 in /  1026.3 hPa SE 0.5 mph /  0.8 km/h 1.2 mph /  1.9 km/h 70 % 0.00 in /  0 mm
19:07 58.5 °F /  14.7 °C 49.1 °F /  9.5 °C 30.31 in /  1026.3 hPa ESE 1.3 mph /  2.1 km/h 3.5 mph /  5.6 km/h 71 % 0.00 in /  0 mm
19:13 58.4 °F /  14.7 °C 49.4 °F /  9.7 °C 30.31 in /  1026.3 hPa SE 0.8 mph /  1.3 km/h 3.5 mph /  5.6 km/h 72 % 0.00 in /  0 mm
19:18 58.1 °F /  14.5 °C 49.1 °F /  9.5 °C 30.32 in /  1026.6 hPa East 0.5 mph /  0.8 km/h 5.8 mph /  9.3 km/h 72 % 0.00 in /  0 mm
19:23 57.9 °F /  14.4 °C 48.9 °F /  9.4 °C 30.31 in /  1026.3 hPa ESE 1.2 mph /  1.9 km/h 3.5 mph /  5.6 km/h 72 % 0.00 in /  0 mm
19:28 57.8 °F /  14.3 °C 49.2 °F /  9.6 °C 30.32 in /  1026.6 hPa ESE 1.4 mph /  2.3 km/h 5.8 mph /  9.3 km/h 73 % 0.00 in /  0 mm
19:33 57.6 °F /  14.2 °C 49.0 °F /  9.4 °C 30.32 in /  1026.6 hPa ESE 1.1 mph /  1.8 km/h 3.5 mph /  5.6 km/h 73 % 0.00 in /  0 mm
19:38 57.5 °F /  14.2 °C 48.9 °F /  9.4 °C 30.32 in /  1026.6 hPa ESE 2.4 mph /  3.9 km/h 4.6 mph /  7.4 km/h 73 % 0.00 in /  0 mm
19:43 57.3 °F /  14.1 °C 48.7 °F /  9.3 °C 30.32 in /  1026.6 hPa SE 1.6 mph /  2.6 km/h 4.6 mph /  7.4 km/h 73 % 0.00 in /  0 mm
19:48 57.2 °F /  14 °C 48.6 °F /  9.2 °C 30.32 in /  1026.6 hPa East 1.8 mph /  2.9 km/h 4.6 mph /  7.4 km/h 73 % 0.00 in /  0 mm
19:53 57.1 °F /  13.9 °C 48.9 °F /  9.4 °C 30.34 in /  1027.3 hPa ESE 1.4 mph /  2.3 km/h 4.6 mph /  7.4 km/h 74 % 0.00 in /  0 mm
19:58 57.1 °F /  13.9 °C 48.9 °F /  9.4 °C 30.32 in /  1026.6 hPa ESE 1.3 mph /  2.1 km/h 3.5 mph /  5.6 km/h 74 % 0.00 in /  0 mm
20:03 56.9 °F /  13.8 °C 48.7 °F /  9.3 °C 30.32 in /  1026.6 hPa ESE 0.8 mph /  1.3 km/h 3.5 mph /  5.6 km/h 74 % 0.00 in /  0 mm
20:08 56.8 °F /  13.8 °C 48.6 °F /  9.2 °C 30.33 in /  1027 hPa ESE 2.2 mph /  3.5 km/h 3.5 mph /  5.6 km/h 74 % 0.00 in /  0 mm
20:13 56.8 °F /  13.8 °C 48.6 °F /  9.2 °C 30.33 in /  1027 hPa ESE 1.8 mph /  2.9 km/h 4.0 mph /  6.4 km/h 74 % 0.00 in /  0 mm
20:18 56.6 °F /  13.7 °C 48.8 °F /  9.3 °C 30.33 in /  1027 hPa SE 2.2 mph /  3.5 km/h 3.5 mph /  5.6 km/h 75 % 0.00 in /  0 mm
20:23 56.5 °F /  13.6 °C 48.3 °F /  9.1 °C 30.33 in /  1027 hPa ESE 1.3 mph /  2.1 km/h 3.5 mph /  5.6 km/h 74 % 0.00 in /  0 mm
20:28 56.4 °F /  13.6 °C 48.6 °F /  9.2 °C 30.33 in /  1027 hPa ESE 2.9 mph /  4.7 km/h 6.9 mph /  11.1 km/h 75 % 0.00 in /  0 mm
20:33 56.3 °F /  13.5 °C 48.5 °F /  9.2 °C 30.33 in /  1027 hPa ESE 0.8 mph /  1.3 km/h 2.3 mph /  3.7 km/h 75 % 0.00 in /  0 mm
20:38 56.2 °F /  13.4 °C 48.4 °F /  9.1 °C 30.34 in /  1027.3 hPa ESE 0.8 mph /  1.3 km/h 2.3 mph /  3.7 km/h 75 % 0.00 in /  0 mm
20:43 56.1 °F /  13.4 °C 48.3 °F /  9.1 °C 30.34 in /  1027.3 hPa ESE 0.7 mph /  1.1 km/h 2.3 mph /  3.7 km/h 75 % 0.00 in /  0 mm
20:48 56.0 °F /  13.3 °C 48.2 °F /  9 °C 30.34 in /  1027.3 hPa ESE 3.6 mph /  5.8 km/h 10.4 mph /  16.7 km/h 75 % 0.00 in /  0 mm
20:53 55.9 °F /  13.3 °C 48.1 °F /  8.9 °C 30.34 in /  1027.3 hPa SE 3.0 mph /  4.8 km/h 4.0 mph /  6.4 km/h 75 % 0.00 in /  0 mm
20:58 55.9 °F /  13.3 °C 48.4 °F /  9.1 °C 30.35 in /  1027.7 hPa SE 2.4 mph /  3.9 km/h 4.0 mph /  6.4 km/h 76 % 0.00 in /  0 mm
21:03 55.8 °F /  13.2 °C 48.3 °F /  9.1 °C 30.35 in /  1027.7 hPa ESE 1.8 mph /  2.9 km/h 4.6 mph /  7.4 km/h 76 % 0.00 in /  0 mm
21:08 55.7 °F /  13.2 °C 48.2 °F /  9 °C 30.35 in /  1027.7 hPa ESE 1.1 mph /  1.8 km/h 2.3 mph /  3.7 km/h 76 % 0.00 in /  0 mm
21:13 55.6 °F /  13.1 °C 48.2 °F /  9 °C 30.38 in /  1028.7 hPa ESE 1.1 mph /  1.8 km/h 3.5 mph /  5.6 km/h 76 % 0.00 in /  0 mm
21:18 55.5 °F /  13.1 °C 48.4 °F /  9.1 °C 30.35 in /  1027.7 hPa ESE 1.6 mph /  2.6 km/h 3.0 mph /  4.8 km/h 77 % 0.00 in /  0 mm
21:23 55.5 °F /  13.1 °C 48.1 °F /  8.9 °C 30.34 in /  1027.3 hPa ESE 2.7 mph /  4.3 km/h 3.5 mph /  5.6 km/h 76 % 0.00 in /  0 mm
21:28 55.4 °F /  13 °C 48.3 °F /  9.1 °C 30.34 in /  1027.3 hPa ESE 0.7 mph /  1.1 km/h 2.3 mph /  3.7 km/h 77 % 0.00 in /  0 mm
21:33 55.4 °F /  13 °C 48.3 °F /  9.1 °C 30.35 in /  1027.7 hPa ESE 1.2 mph /  1.9 km/h 2.3 mph /  3.7 km/h 77 % 0.00 in /  0 mm
21:38 55.4 °F /  13 °C 48.3 °F /  9.1 °C 30.39 in /  1029 hPa East 1.5 mph /  2.4 km/h 2.3 mph /  3.7 km/h 77 % 0.00 in /  0 mm
21:43 55.3 °F /  12.9 °C 48.2 °F /  9 °C 30.39 in /  1029 hPa ESE 0.9 mph /  1.4 km/h 2.0 mph /  3.2 km/h 77 % 0.00 in /  0 mm
21:44 55.3 °F /  12.9 °C 48.2 °F /  9 °C 30.34 in /  1027.3 hPa ESE 0.3 mph /  0.5 km/h 3.5 mph /  5.6 km/h 77 % 0.00 in /  0 mm
21:49 55.3 °F /  12.9 °C 48.6 °F /  9.2 °C 30.39 in /  1029 hPa ESE 1.2 mph /  1.9 km/h 3.5 mph /  5.6 km/h 78 % 0.00 in /  0 mm
21:54 55.2 °F /  12.9 °C 48.5 °F /  9.2 °C 30.39 in /  1029 hPa ESE 0.9 mph /  1.4 km/h 3.5 mph /  5.6 km/h 78 % 0.00 in /  0 mm
21:59 55.2 °F /  12.9 °C 48.5 °F /  9.2 °C 30.35 in /  1027.7 hPa East 1.1 mph /  1.8 km/h 1.2 mph /  1.9 km/h 78 % 0.00 in /  0 mm
22:04 55.2 °F /  12.9 °C 48.8 °F /  9.3 °C 30.38 in /  1028.7 hPa East 1.8 mph /  2.9 km/h 5.8 mph /  9.3 km/h 79 % 0.00 in /  0 mm
22:09 55.4 °F /  13 °C 49.7 °F /  9.8 °C 30.39 in /  1029 hPa East 5.0 mph /  8 km/h 6.0 mph /  9.7 km/h 81 % 0.00 in /  0 mm
22:14 55.7 °F /  13.2 °C 49.3 °F /  9.6 °C 30.39 in /  1029 hPa East 3.8 mph /  6.1 km/h 5.0 mph /  8 km/h 79 % 0.00 in /  0 mm
22:19 56.0 °F /  13.3 °C 49.2 °F /  9.6 °C 30.35 in /  1027.7 hPa East 5.4 mph /  8.7 km/h 9.2 mph /  14.8 km/h 78 % 0.00 in /  0 mm
22:24 56.1 °F /  13.4 °C 49.3 °F /  9.6 °C 30.39 in /  1029 hPa ENE 5.5 mph /  8.9 km/h 8.0 mph /  12.9 km/h 78 % 0.00 in /  0 mm
22:29 56.2 °F /  13.4 °C 49.4 °F /  9.7 °C 30.38 in /  1028.7 hPa East 3.7 mph /  6 km/h 5.8 mph /  9.3 km/h 78 % 0.00 in /  0 mm
22:34 56.2 °F /  13.4 °C 49.1 °F /  9.5 °C 30.38 in /  1028.7 hPa East 4.3 mph /  6.9 km/h 6.0 mph /  9.7 km/h 77 % 0.00 in /  0 mm
22:40 56.2 °F /  13.4 °C 49.4 °F /  9.7 °C 30.35 in /  1027.7 hPa East 3.3 mph /  5.3 km/h 11.5 mph /  18.5 km/h 78 % 0.00 in /  0 mm
22:44 56.3 °F /  13.5 °C 49.5 °F /  9.7 °C 30.35 in /  1027.7 hPa ENE 3.9 mph /  6.3 km/h 4.6 mph /  7.4 km/h 78 % 0.00 in /  0 mm
22:50 56.3 °F /  13.5 °C 49.9 °F /  9.9 °C 30.35 in /  1027.7 hPa East 2.8 mph /  4.5 km/h 4.6 mph /  7.4 km/h 79 % 0.00 in /  0 mm
22:55 56.2 °F /  13.4 °C 49.8 °F /  9.9 °C 30.39 in /  1029 hPa East 3.8 mph /  6.1 km/h 5.8 mph /  9.3 km/h 79 % 0.00 in /  0 mm
23:00 56.1 °F /  13.4 °C 49.7 °F /  9.8 °C 30.35 in /  1027.7 hPa East 3.9 mph /  6.3 km/h 5.8 mph /  9.3 km/h 79 % 0.00 in /  0 mm
23:05 56.0 °F /  13.3 °C 49.6 °F /  9.8 °C 30.35 in /  1027.7 hPa ESE 2.7 mph /  4.3 km/h 5.8 mph /  9.3 km/h 79 % 0.00 in /  0 mm
23:10 56.0 °F /  13.3 °C 49.6 °F /  9.8 °C 30.35 in /  1027.7 hPa East 4.1 mph /  6.6 km/h 6.0 mph /  9.7 km/h 79 % 0.00 in /  0 mm
23:15 56.0 °F /  13.3 °C 49.9 °F /  9.9 °C 30.35 in /  1027.7 hPa East 4.8 mph /  7.7 km/h 7.0 mph /  11.3 km/h 80 % 0.00 in /  0 mm
23:20 56.0 °F /  13.3 °C 49.9 °F /  9.9 °C 30.35 in /  1027.7 hPa East 4.1 mph /  6.6 km/h 8.1 mph /  13 km/h 80 % 0.00 in /  0 mm
23:25 56.1 °F /  13.4 °C 50.3 °F /  10.2 °C 30.39 in /  1029 hPa East 5.0 mph /  8 km/h 6.9 mph /  11.1 km/h 81 % 0.00 in /  0 mm
23:30 56.1 °F /  13.4 °C 50.3 °F /  10.2 °C 30.35 in /  1027.7 hPa East 4.1 mph /  6.6 km/h 6.0 mph /  9.7 km/h 81 % 0.00 in /  0 mm
23:35 56.1 °F /  13.4 °C 50.3 °F /  10.2 °C 30.35 in /  1027.7 hPa East 3.3 mph /  5.3 km/h 4.6 mph /  7.4 km/h 81 % 0.00 in /  0 mm
23:40 56.1 °F /  13.4 °C 50.3 °F /  10.2 °C 30.35 in /  1027.7 hPa East 3.5 mph /  5.6 km/h 5.8 mph /  9.3 km/h 81 % 0.00 in /  0 mm
23:45 56.1 °F /  13.4 °C 50.3 °F /  10.2 °C 30.35 in /  1027.7 hPa ENE 4.7 mph /  7.6 km/h 9.2 mph /  14.8 km/h 81 % 0.00 in /  0 mm
23:51 56.1 °F /  13.4 °C 50.3 °F /  10.2 °C 30.35 in /  1027.7 hPa ENE 1.0 mph /  1.6 km/h 6.0 mph /  9.7 km/h 81 % 0.00 in /  0 mm
23:56 56.0 °F /  13.3 °C 49.9 °F /  9.9 °C 30.35 in /  1027.7 hPa SE 3.2 mph /  5.1 km/h 5.8 mph /  9.3 km/h 80 % 0.00 in /  0 mm
Crab Meadow Weather
Compliments of Weather Underground - 3 mb

Script developed by  Jim McMurry - jmcmurry@mwt.net Adapted for the template by  Wim van der Kuil - Leuven-Template.eu

Lightning: Lightning is equivalent to the electric power of 100 million light bulbs in your face.